CAPE
0 0 0 0 0 0 0 0 0 0 0 0 0 0 0 0 0 0 0 0 0 0 0 0 0 0 0 0 0 0 0 0 0 0 0 0 0 0 0 0 0 0 0 0
0 0 0 0 0 0 0 0 0 0 0 0 0 0 0 0 0 0 0 0 0 0 0 0 0 0 0 0 0 0 0 0 0 0 0 0 0 0 0 0 0 0 0 0
0 0 0 0 0 1 0 0 0 0 0 0 0 0 0 0 0 0 0 0 0 0 0 0 0 0 0 0 0 0 0 0 0 0 0 0 0 0 0 0 0 0 0 0
0 0 0 0 0 0 0 0 0 0 0 0 0 0 0 0 0 0 0 0 0 0 0 0 0 0 0 0 0 0 0 0 0 0 0 0 0 0 0 0 0 0 0 0
0 0 0 0 0 0 0 0 0 0 0 0 0 0 0 0 0 0 0 0 0 0 0 0 0 0 0 0 0 0 0 0 0 0 0 0 0 0 0 0 0 0 0 0
0 0 0 0 0 0 0 0 0 0 0 0 0 0 0 0 0 0 0 0 0 0 0 0 0 0 0 0 0 0 0 0 0 0 0 0 0 0 0 0 0 0 0 0
0 0 0 0 0 0 0 0 0 0 0 0 0 0 0 0 0 0 0 0 0 0 0 0 0 0 0 0 0 0 0 0 0 0 0 0 0 0 0 0 0 0 0 0
0 0 0 0 0 0 0 0 0 0 0 0 0 0 0 0 0 0 0 0 0 0 0 0 0 0 0 0 0 0 0 0 0 0 0 0 0 0 0 0 0 0 0 0
0 0 0 0 0 0 0 0 0 0 0 0 0 0 0 0 0 0 0 0 0 0 0 0 0 0 0 0 0 0 0 1 0 0 0 0 0 0 0 0 0 0 0 0
0 0 0 0 0 0 0 0 0 0 0 0 0 0 0 0 0 0 0 0 0 0 0 0 0 0 0 0 0 0 0 0 0 0 0 0 0 0 0 0 0 0 0 0
0 0 0 0 0 0 0 0 0 0 0 0 0 0 0 0 0 0 0 0 0 0 0 0 0 0 0 0 0 0 0 0 0 0 0 0 0 0 0 0 0 0 0 0
0 0 0 0 0 0 0 0 0 0 0 0 0 0 0 0 0 0 0 0 0 0 0 0 0 0 0 0 2 1 5 0 0 0 0 0 0 0 0 0 0 0 0 0
3 0 0 0 0 0 0 0 0 0 0 0 0 0 0 0 0 0 0 0 0 0 0 0 0 0 0 0 1 1 1 0 0 0 0 0 0 0 0 0 0 0 0 0
0 0 0 0 0 0 0 0 0 0 0 0 0 0 0 0 0 0 0 0 0 0 0 2 0 0 0 0 0 0 0 0 0 0 0 0 0 0 0 0 0 0 0 0
0 0 0 0 0 0 0 0 0 0 0 0 0 0 0 0 0 0 0 0 0 0 0 0 0 1 2 3 2 0 0 0 0 0 0 0 0 0 0 0 0 0 0 0
0 0 0 0 0 0 0 0 0 0 0 0 0 0 0 0 0 0 0 0 0 0 0 0 0 0 0 0 0 0 0 0 0 0 0 0 0 0 0 0 0 0 0 0
0 0 0 0 0 0 0 0 0 0 0 0 0 0 0 0 0 0 0 0 0 0 0 0 0 0 0 0 0 0 0 0 0 0 0 0 0 0 0 0 0 0 0 0
0 0 0 0 0 0 0 0 0 0 0 0 0 0 0 0 0 0 0 0 0 0 0 0 0 0 0 0 0 0 0 0 0 0 0 0 0 0 0 0 0 0 0 0
0 0 0 0 0 0 0 0 0 0 0 0 0 0 0 0 0 0 0 0 0 0 0 0 0 0 0 0 0 0 0 0 0 0 0 0 0 0 0 0 0 0 0 0
0 0 0 0 0 0 0 0 0 0 0 0 0 0 0 0 0 0 0 0 0 0 0 0 0 0 0 0 0 0 0 0 0 0 0 0 0 0 0 0 0 0 0 0
0 0 0 0 0 0 0 0 0 0 0 0 0 0 0 0 0 0 0 0 0 0 0 0 0 0 0 0 0 0 0 0 0 0 0 0 0 0 0 0 0 0 0 0
0 0 0 0 0 0 0 0 0 0 0 1 0 0 0 0 0 0 0 0 0 0 0 0 0 0 0 0 0 0 0 0 0 0 0 0 0 0 0 0 0 0 0 0
0 0 0 0 0 0 0 0 0 0 0 0 0 0 0 0 0 0 0 0 0 0 0 0 0 0 0 0 0 0 0 0 0 0 0 0 0 0 0 0 0 0 0 0
0 0 0 0 0 0 0 0 0 0 0 0 0 0 0 0 0 0 0 0 0 1 0 0 0 0 0 0 0 0 0 0 0 0 0 0 0 0 0 0 0 0 0 0
0 0 0 0 0 0 0 0 0 0 0 0 0 0 0 0 0 0 0 0 0 0 0 0 0 0 0 0 0 0 0 0 0 0 0 0 0 0 0 0 0 0 0 0
0 0 0 0 0 0 0 0 0 0 0 0 0 0 0 0 0 0 0 0 0 0 0 0 0 0 0 0 0 0 0 0 0 0 0 0 0 0 0 0 0 0 0 0
0 0 0 0 0 0 0 0 0 0 0 0 0 0 0 0 0 0 0 0 0 0 0 0 0 0 0 0 0 0 0 0 0 0 0 0 0 0 0 0 0 0 0 0
CIN
0 0 0 0 0 0 0 -1 0 0 0 0 0 0 0 0 0 0 0 0 0 0 0 0 0 0 0 0 0 0 0 0 0 0 0 0 0 0 0 0 0 0 0 0
0 0 0 0 0 -1 0 0 0 0 0 0 0 0 0 0 0 0 0 0 0 0 0 0 0 0 0 0 0 0 0 0 0 0 0 0 0 0 0 0 0 0 0 0
0 0 0 0 0 -1 0 0 0 0 0 0 0 0 0 0 0 0 0 0 0 0 0 0 0 0 0 0 0 0 0 0 0 0 0 0 0 0 0 0 0 0 0 0
0 0 0 0 0 0 0 0 0 0 0 0 0 0 0 0 0 0 0 0 0 0 0 0 0 0 0 0 0 0 0 0 0 0 0 0 0 0 0 0 0 0 0 0
0 0 0 0 0 0 0 0 0 0 0 0 0 0 0 0 0 0 0 0 0 0 0 0 0 0 0 0 0 0 0 0 0 0 0 0 0 0 0 0 0 0 0 0
0 0 0 0 0 0 0 0 0 0 0 0 0 0 0 0 0 0 0 0 0 0 0 0 0 0 0 0 0 0 0 0 0 0 0 0 0 0 0 0 0 0 0 0
0 0 0 0 0 0 0 0 0 0 0 0 0 0 0 0 0 0 0 0 0 0 0 0 0 0 0 0 0 0 0 0 0 0 0 0 0 0 0 0 0 0 0 0
0 0 0 0 0 0 0 0 0 0 0 0 0 0 0 0 0 0 0 0 0 0 0 0 0 0 0 0 0 0 0 0 0 0 0 0 0 0 0 0 0 0 0 0
0 0 0 0 0 0 0 0 0 0 0 0 0 0 0 0 0 0 0 0 0 0 0 0 0 0 0 0 0 0 0 0 0 0 0 0 0 0 0 0 0 0 0 0
0 0 0 0 0 0 0 0 0 0 0 0 0 0 0 0 0 0 0 0 0 0 0 0 0 0 0 0 0 0 0 0 0 0 0 0 0 0 0 0 0 0 0 0
0 0 0 0 0 0 0 0 0 0 0 0 0 0 0 0 0 0 0 0 0 0 0 0 0 0 0 0 0 0 0 0 0 0 0 0 0 0 0 0 0 0 0 0
0 0 0 0 0 0 0 0 0 0 0 0 0 0 0 0 0 0 0 0 0 0 0 0 0 0 0 0 0 0 -9 -1 0 0 0 0 0 0 0 0 0 0 0 0
-15 0 0 0 0 0 0 0 0 0 0 0 0 0 0 0 0 0 0 0 0 0 0 0 0 0 0 0 0 0 0 0 0 0 0 0 0 0 0 0 0 0 0 0
0 0 0 0 0 0 0 0 0 0 0 0 0 0 0 0 0 0 0 0 0 0 0 -6 0 0 0 0 0 0 0 0 0 0 0 0 0 0 0 0 0 0 0 0
0 0 0 0 0 0 0 0 0 0 0 0 0 0 0 0 0 0 0 0 0 0 -4 -2 0 0 0 0 0 0 0 0 0 0 0 0 0 0 0 0 0 0 0 0
0 0 0 0 0 0 0 0 0 0 0 0 0 0 0 0 0 0 0 0 0 0 -2 0 0 0 0 0 0 0 0 0 0 0 0 0 0 0 0 0 0 0 0 0
0 0 0 0 0 0 0 0 0 0 0 0 0 0 0 0 0 0 0 0 0 0 0 0 0 0 0 0 0 0 0 0 0 0 0 0 0 0 0 0 0 0 0 0
0 0 0 0 0 0 0 0 0 0 0 0 0 0 0 0 0 0 0 0 0 0 0 0 0 0 0 0 0 0 0 0 0 0 0 0 0 0 0 0 0 0 0 0
0 0 0 0 0 0 0 0 0 0 0 0 0 0 0 0 0 0 0 0 0 0 0 0 0 0 0 0 0 0 0 0 0 0 0 0 0 0 0 0 0 0 0 0
0 0 0 0 0 0 0 0 0 0 0 0 0 0 0 0 0 0 0 0 0 0 0 0 0 0 0 0 0 0 0 0 0 0 0 0 0 0 0 0 0 0 0 0
0 0 0 0 0 0 0 0 0 0 0 0 0 0 0 0 0 0 0 0 0 0 0 0 0 0 0 0 0 0 0 0 0 0 0 0 0 0 0 0 0 0 0 0
0 0 0 0 0 0 0 0 0 0 0 0 0 0 0 0 0 0 0 0 0 0 0 0 0 0 0 0 0 0 0 0 0 0 0 0 0 0 0 0 0 0 0 0
0 0 0 0 0 0 0 0 0 0 0 0 0 0 0 0 0 0 0 0 0 0 0 0 0 0 0 0 0 0 0 0 0 0 0 0 0 0 0 0 0 0 0 0
0 0 0 0 0 0 0 0 0 0 0 0 0 0 0 0 0 0 0 0 0 0 0 0 0 0 0 0 0 0 0 0 0 0 0 0 0 0 0 0 0 0 0 0
0 0 0 0 0 0 0 0 0 0 0 0 0 0 0 0 0 0 0 0 0 0 0 0 0 0 0 0 0 0 0 0 0 0 0 0 0 0 0 0 0 0 0 0
0 0 0 0 0 0 0 0 0 0 0 0 0 0 0 0 0 0 0 0 0 0 0 0 0 0 0 0 0 0 0 0 0 0 0 0 0 0 0 0 0 0 0 0
0 0 0 0 0 0 0 0 0 0 0 0 0 0 0 0 0 0 0 0 0 0 0 0 0 0 0 0 0 0 0 0 0 0 0 0 0 0 0 0 0 0 0 0
Wind_Speed
14 10 8 15 21 17 20 18 12 18 23 3 9 9 11 14 11 10 10 8 9 9 7 6 5 3 3 2 3 1 3 4 6 7 7 8 7 7 7 10 12 10 9 9
19 8 12 22 28 21 25 26 25 29 41 20 25 15 11 10 11 12 8 8 10 9 7 6 5 4 2 3 4 4 4 6 6 6 7 7 7 6 7 11 10 8 9 9
26 10 9 19 19 24 24 27 26 27 39 23 12 13 16 16 12 12 11 12 10 7 7 6 6 6 6 6 4 5 5 6 6 6 7 7 7 6 8 9 8 9 8 9
9 5 10 11 3 14 25 26 25 25 24 20 8 9 8 7 9 8 11 9 7 6 5 6 5 5 5 5 5 6 5 6 6 7 7 7 6 5 5 5 5 5 5 7
6 9 8 21 9 9 11 23 20 21 25 24 7 4 2 1 4 8 8 7 7 7 5 4 5 6 6 6 6 5 6 7 6 6 6 7 8 6 4 3 4 5 4 7
5 6 12 4 4 3 7 21 11 19 19 13 9 6 5 6 6 8 7 4 4 4 4 4 7 3 6 6 5 7 7 6 5 6 6 9 8 5 2 2 5 4 5 6
13 11 7 8 4 5 9 9 1 4 6 8 7 5 8 9 5 6 6 6 4 3 4 6 5 5 6 5 8 6 6 6 6 7 7 6 4 1 1 1 2 2 2 2
7 8 14 11 7 12 5 2 4 4 4 6 7 6 8 8 8 7 8 5 4 6 4 2 3 4 5 6 8 5 5 5 5 4 4 2 1 1 2 1 0 2 2 2
10 8 3 9 6 4 4 5 6 7 6 8 9 6 8 7 7 6 5 5 4 5 4 1 1 1 6 9 5 6 5 6 7 4 3 1 1 1 1 1 1 0 0 1
3 9 10 6 2 1 5 5 5 6 7 8 9 9 7 6 4 5 5 5 3 3 1 3 4 5 5 6 4 4 6 6 5 4 4 2 3 1 0 0 0 1 1 1
4 5 4 10 7 5 4 6 6 6 4 6 8 7 6 6 6 5 4 3 4 3 2 4 5 6 6 6 6 5 6 4 5 4 4 3 3 1 0 1 1 1 1 3
6 8 6 7 6 8 8 7 8 11 8 6 5 7 8 6 3 5 5 2 3 3 3 4 3 6 6 7 8 8 7 7 4 4 3 2 3 0 2 2 3 3 3 2
7 3 4 5 6 7 10 10 10 10 8 9 6 7 5 3 3 5 4 2 1 3 5 3 2 3 4 7 8 8 7 6 3 3 3 3 2 2 1 1 2 1 1 2
9 8 3 5 5 12 13 11 10 8 7 6 7 6 7 5 3 3 2 2 3 5 5 1 4 4 4 6 7 8 8 3 3 3 3 3 3 2 2 2 1 1 0 1
10 10 9 11 12 8 8 9 7 6 6 5 4 6 6 5 3 2 2 3 3 5 5 5 5 5 6 7 7 8 6 3 2 2 3 3 3 2 2 2 2 1 1 1
12 12 8 8 9 10 9 8 7 6 5 3 5 5 5 3 1 3 2 1 2 4 6 6 4 3 5 6 6 6 4 3 1 2 2 1 2 2 2 2 2 2 1 2
17 11 12 10 11 12 10 6 6 6 5 5 5 4 5 4 3 3 3 3 3 4 5 4 4 3 4 5 6 4 4 3 1 2 2 1 1 1 2 2 2 2 2 3
12 10 9 9 10 8 8 6 5 6 4 5 4 4 4 4 1 4 4 4 4 5 3 3 3 4 4 4 4 4 3 2 1 0 1 2 1 1 1 1 2 2 2 1
9 11 10 8 8 7 7 6 5 5 5 5 4 2 3 1 2 2 2 3 4 4 3 4 5 5 5 4 3 2 4 3 1 1 1 2 1 1 0 1 2 2 1 2
10 9 10 8 7 6 6 4 5 3 2 2 1 1 2 4 3 2 2 4 6 5 3 4 4 4 5 5 5 3 4 2 2 2 2 2 2 2 2 3 3 3 3 2
9 8 8 7 5 4 4 3 4 3 3 3 3 5 6 5 4 3 2 4 5 4 4 5 3 3 3 3 3 3 2 1 2 2 2 3 4 3 4 4 4 3 4 4
6 6 6 5 5 3 2 3 3 1 2 3 4 4 3 6 4 4 6 7 4 6 3 3 2 4 3 4 2 2 1 1 2 3 3 4 4 4 3 4 4 4 4 5
5 5 5 5 4 4 2 1 0 2 2 2 3 3 4 4 3 3 5 5 3 4 3 2 3 5 3 1 1 2 3 3 3 3 4 5 5 5 5 4 4 4 4 5
7 6 5 4 4 2 2 3 3 3 0 2 1 3 2 2 4 3 4 4 5 4 3 2 2 4 4 3 3 4 4 4 5 5 6 7 6 6 5 5 5 5 5 6
5 4 3 4 4 2 4 3 3 3 4 4 4 4 4 2 4 5 3 2 4 4 3 4 7 7 4 4 4 5 5 5 5 6 6 6 6 6 6 6 5 5 5 6
4 3 3 5 4 2 2 2 1 3 3 4 4 5 5 4 4 3 3 4 4 6 5 4 3 5 5 6 6 6 6 6 6 7 7 7 7 7 6 6 6 6 6 6
5 5 4 3 2 2 1 1 1 4 3 2 5 7 5 5 4 2 4 5 5 6 6 5 5 6 6 6 7 7 7 7 8 7 7 7 7 7 7 6 6 6 6 6
Wind_Direction
250 225 239 255 249 241 250 241 232 262 261 190 242 241 232 221 204 205 213 196 174 170 174 170 156 134 103 57 18 354 342 317 294 286 276 264 248 234 226 224 229 209 198 199
259 228 240 255 249 240 238 245 247 254 262 238 259 249 243 228 223 222 205 175 170 169 169 174 182 192 182 212 230 213 250 265 272 284 300 289 275 245 222 234 229 199 204 203
255 214 224 259 247 233 237 235 233 241 249 279 254 246 236 238 222 212 181 174 166 168 182 192 208 206 214 224 239 245 264 283 292 288 283 282 282 261 234 228 224 213 211 201
251 134 218 247 177 202 214 234 231 244 252 250 238 237 246 218 207 181 161 155 171 189 205 223 224 226 226 227 243 254 279 288 281 283 275 289 296 285 266 254 215 208 197 202
219 213 295 285 198 178 175 258 223 228 240 244 231 86 306 160 142 145 143 172 191 198 210 241 251 241 217 240 247 290 289 280 286 281 288 296 286 270 241 211 228 211 198 199
164 220 212 301 336 171 117 265 177 209 234 235 137 194 211 183 133 137 155 168 210 230 239 244 266 246 204 238 265 272 268 280 295 280 270 276 273 244 213 237 234 221 220 207
226 228 251 228 191 123 168 258 205 196 216 160 194 233 146 135 123 146 171 194 211 208 224 250 259 193 202 230 255 259 294 299 287 273 279 272 259 308 202 240 278 314 298 268
220 234 246 177 196 197 192 106 161 134 121 115 122 103 115 131 148 160 182 186 162 157 172 194 184 177 230 246 253 262 262 266 272 295 300 323 360 30 45 73 49 31 41 35
199 209 242 192 193 185 163 161 179 140 156 143 133 138 147 158 168 189 167 159 149 162 162 133 20 268 267 264 261 220 235 239 237 187 253 209 32 297 57 90 106 149 159 91
137 233 241 220 228 182 195 196 161 155 153 148 142 143 159 156 147 133 129 129 128 119 60 344 323 315 274 290 254 201 240 251 258 222 188 156 92 18 186 60 197 142 161 123
238 278 328 235 224 155 115 104 96 85 115 137 135 151 137 124 114 113 117 96 75 53 350 328 334 331 336 330 320 289 272 237 243 219 194 150 106 202 244 270 199 220 211 154
209 212 209 236 177 150 137 129 117 112 78 50 86 109 114 117 116 120 113 92 46 6 330 302 331 332 336 337 332 305 289 272 210 197 181 88 125 167 33 273 262 247 252 163
239 193 220 164 124 111 109 107 101 107 107 111 86 100 94 94 97 99 103 62 336 298 310 296 310 325 341 335 323 313 297 297 179 165 140 152 166 177 196 354 324 231 307 260
149 108 69 178 143 107 102 97 102 117 116 112 114 105 112 118 98 105 108 331 331 311 291 302 333 332 338 328 315 303 299 261 189 174 166 169 179 194 172 182 257 315 304 187
137 93 118 115 105 100 109 109 132 161 151 138 131 128 121 126 158 230 188 42 347 310 331 325 320 321 330 320 303 301 295 278 242 173 166 163 157 181 153 150 226 200 355 13
145 121 124 117 122 131 142 186 164 154 147 148 139 138 126 130 211 254 350 93 345 317 310 297 296 312 313 306 311 314 310 288 156 115 132 164 159 165 166 175 198 181 199 189
122 155 170 177 175 168 169 164 157 165 163 159 146 119 87 54 356 352 343 335 313 279 283 282 287 296 286 302 316 318 330 346 343 114 134 157 171 200 184 173 198 216 204 187
133 153 168 158 157 141 136 144 152 163 153 135 134 123 119 88 327 297 305 321 310 302 295 272 272 281 280 284 304 314 316 327 4 131 152 161 180 183 193 191 200 209 205 194
122 122 109 112 120 124 129 134 146 136 135 140 137 169 126 157 249 266 303 304 291 283 267 245 269 292 288 288 288 286 294 261 236 192 183 169 167 143 193 235 220 200 193 159
96 95 105 100 91 106 124 121 125 126 163 134 163 93 245 258 235 247 249 265 257 247 226 248 267 280 285 300 302 273 273 233 200 156 134 123 124 110 80 70 67 66 56 49
110 110 112 108 109 92 106 141 149 194 240 143 165 227 229 250 250 240 251 258 257 237 225 246 250 277 279 296 301 294 275 220 154 138 139 126 104 82 73 64 59 46 47 40
120 117 123 124 119 97 136 177 182 237 276 272 253 259 267 266 254 261 235 231 247 211 206 223 239 243 275 285 290 270 187 124 112 111 107 102 103 92 81 73 77 63 53 53
115 113 115 126 121 119 56 28 321 197 263 258 270 258 220 247 242 234 262 263 224 202 200 201 244 262 213 188 163 95 91 97 93 93 92 98 96 92 89 77 59 61 57 53
108 106 112 115 113 103 58 15 24 50 109 312 300 236 253 310 307 251 254 267 240 193 167 184 155 120 107 80 76 76 72 72 72 76 83 84 85 89 82 78 72 59 58 59
114 124 105 97 78 69 83 58 36 18 6 342 320 306 288 255 240 282 252 236 161 119 97 97 106 100 82 77 77 76 72 73 77 81 78 80 79 78 75 70 66 65 64 61
120 96 92 92 103 90 62 36 1 313 321 306 297 286 284 276 271 244 176 144 112 107 89 66 60 75 74 76 77 76 76 76 77 77 83 81 83 82 79 76 69 65 64 67
74 77 88 64 46 45 358 304 290 282 269 245 275 282 283 282 255 136 110 110 99 91 84 73 66 68 75 75 74 71 71 71 73 81 79 82 80 79 78 76 72 69 67 71